www.pogodaiklimat.ru

Погода и климат >> Архив погоды >> Парагвай >> Коронель-Овьедо


ПОГОДА в Коронель-Овьедо

  • Прогноз погоды в Коронель-Овьедо
  • Монитор погоды в Коронель-Овьедо

АРХИВ ПОГОДЫ в Коронель-Овьедо

Время (UTC), дата Ветер
(напр.,м/с)
 
Видим.   Явления Облачность Т
(С)
Тd
(С)
f
(%)
Тe
(С)
Тes
(С)
Комфортность P
(гПа)
Po
(гПа)
Тmin
(С)
Tmax
(С)
R
(мм)
R24
(мм)
S
(см)
06 9.01 СВ 1 20 км 5/0 2000 м
[Ac As]
+25.2 +19.3 70 +30 +30 душно 1009.5 991.2
09 9.01 СВ 1 20 км 5/0 2000 м
[Ac As]
+24.6 +20.8 79 +31 +31 очень
душно
1009.5 991.2
12 9.01 СВ 1 20 км 5/0 2000 м
[Ac As Cc]
+27.0 +22.6 77 +36 +43 очень
душно
1010.3 992.2 +23.0
15 9.01 С 5 20 км 6/4 1000 м
[Cu hum Cs]
+32.0 +19.9 49 +38 +44 очень
душно
1010.7 992.9
18 9.01 С 7 20 км 6/4 1000 м
[Cu med, cong Cs]
+34.0 +20.0 44 +40 +43 очень
душно
1008.5 990.7
21 9.01 С 5 20 км 6/4 1000 м
[Cu med, cong Cs]
+33.6 +19.1 42 +39 +39 очень
душно
1007.0 989.2
00 10.01 С 1 20 км 5/1 1000 м
[Cu med, cong Cs]
+29.0 +19.8 58 +35 +35 очень
душно
1007.3 989.4 +34.0
03 10.01 СВ 1 20 км 5/0
[Cs]
+26.0 +21.5 76 +33 +33 очень
душно
1008.4 990.1
06 10.01 СВ 1 20 км 5/0 2000 м
[Ac As Cs]
+25.4 +20.4 74 +31 +31 очень
душно
1007.4 989.1
09 10.01 СВ 1 20 км 5/0 2000 м
[Ac As Cs]
+25.0 +20.4 76 +31 +31 очень
душно
1008.0 989.7
12 10.01 С 1 20 км 4/0
[Cc]
+28.0 +22.1 70 +36 +46 очень
душно
1010.1 992.0 +25.0
15 10.01 С 5 20 км 4/1 1000 м
[Cu med, cong Cs]
+32.0 +19.9 49 +38 +47 очень
душно
1010.7 992.9
18 10.01 С 5 20 км 5/3 1000 м
[Cu med, cong Cs]
+34.0 +20.6 46 +41 +46 опасность
перегрева
1009.0 991.2
21 10.01 Ю 5 20 км 8/4 1000 м
[Cu med, cong Ac As]
+31.0 +14.7 37 +33 +33 душно 1008.5 990.7
00 11.01 Ю 1 20 км зарница 6/3 1000 м
[Cb cap Ac As]
+26.0 +21.5 76 +33 +33 очень
душно
1010.3 992.1 +34.0
03 11.01 ЮВ 1 20 км 8/0 2000 м
[Ac As]
+24.6 +20.6 78 +31 +31 очень
душно
1012.4 994.1
06 11.01 ЮВ 1 20 км 8/0 2000 м
[Ac As]
+24.0 +20.9 83 +30 +30 очень
душно
1013.2 994.9
09 11.01 Ю 1 20 км 9/0 2000 м
[Ac As]
+23.0 +19.9 83 +30 +30 очень
душно
1013.5 995.1
12 11.01 Ю 2 20 км 10/8 300 м
[Sc Ac As]
+22.8 +18.8 78 +29 +29 очень
душно
1015.6 997.1 +22.8
15 11.01 СВ 2 20 км 8/3 800 м
[Cu hum Cs]
+29.2 +23.2 70 +39 +52 опасность
солнечного
удара
1015.3 997.2
18 11.01 СВ 2 20 км 8/3 800 м
[Cu med, cong Ac As Cs]
+30.6 +23.8 67 +42 +49 опасность
перегрева
1013.5 995.6
21 11.01 ЮВ 1 20 км 5/3 800 м
[Cu med, cong Ac As]
+32.4 +16.0 37 +35 +36 душно 1011.0 993.2
00 12.01 ЮВ 1 20 км 4/1 1000 м
[Cu med, cong Ac As]
+28.0 +22.1 70 +36 +36 очень
душно
1012.2 994.1 +32.4
03 12.01 В 2 20 км 6/0 2000 м
[Ac As]
+25.8 +21.8 79 +33 +33 очень
душно
1014.5 996.1
06 12.01 ЮЗ 1 20 км 10/0 2000 м
[Ac As]
+24.2 +22.4 90 +32 +32 очень
душно
1013.6 995.2
09 12.01 ЮВ 1 20 км 10/0 2000 м
[Ac As]
+23.2 +19.9 82 +30 +30 очень
душно
1012.7 994.3
12 12.01 Ю 2 20 км 9/0 2000 м
[Ac As]
+24.6 +23.1 91 +33 +36 очень
душно
1014.5 996.1 +22.8
15 12.01 СВ 3 20 км 9/4 300 м
[Sc Ac As]
+27.2 +21.0 69 +34 +39 очень
душно
1015.2 996.9
18 12.01 СВ 4 20 км {морось} 8/3 800 м
[Cu med, cong Ac As]
+30.8 +22.2 60 +40 +43 очень
душно
1013.6 995.6 0.5
21 12.01 СВ 3 20 км 6/4 800 м
[Cu med, cong Ac As]
+32.8 +21.1 50 +40 +41 очень
душно
1010.4 992.6
00 13.01 СВ 1 20 км 5/1 1000 м
[Cu med, cong Ac As]
+29.8 +21.3 60 +37 +37 очень
душно
1011.6 993.6 +32.8
03 13.01 СВ 1 20 км зарница 5/1 1200 м
[Cb cap Ac As]
+25.6 +21.7 79 +33 +33 очень
душно
1012.1 995.5
06 13.01 В 1 20 км 8/0 2000 м
[Ac As]
+24.0 +20.9 83 +30 +30 очень
душно
1012.2 993.7
15 13.01 С 3 20 км 6/4 800 м
[Cu hum Cs]
+30.2 +20.9 58 +38 +47 очень
душно
1014.9 996.9
18 13.01 С 4 20 км 6/4 800 м
[Cu med, cong Cs]
+32.4 +16.7 39 +36 +42 очень
душно
1012.1 994.2
21 13.01 З 2 20 км {морось} 6/3 800 м
[Cu med, cong Ac As]
+32.0 +21.7 55 +41 +42 опасность
перегрева
1009.5 991.6 1
00 14.01 СЗ 1 20 км зарница 6/3 800 м
[Cb cap Ac As]
+29.0 +22.1 66 +37 +37 очень
душно
1010.5 992.5 +32.4
03 14.01 ЮЗ 1 20 км зарница {гроза} 6/1 1200 м
[Cb cap Ac As]
+26.0 +23.1 84 +35 +35 очень
душно
1012.8 994.1
06 14.01 ЮВ 1 20 км 6/0 2000 м
[Ac As]
+25.2 +21.9 82 +32 +32 очень
душно
1013.4 995.1
09 14.01 ЮВ 1 20 км 8/0 2000 м
[Ac As]
+24.4 +20.9 81 +31 +31 очень
душно
1012.7 994.4
12 14.01 СВ 4 20 км 8/0 2000 м
[Ac As Cs]
+28.0 +23.6 77 +38 +42 очень
душно
1013.6 995.4 +24.4 1
15 14.01 С 5 20 км 8/1 800 м
[Cu med, cong Ac As]
+30.2 +21.0 58 +38 +42 очень
душно
1013.6 995.6
18 14.01 С 5 20 км 8/4 800 м
[Cu med, cong Ac As]
+33.4 +21.1 49 +41 +44 опасность
перегрева
1012.9 994.6
21 14.01 СЗ 2 20 км 8/4 800 м
[Cu med, cong Ac As]
+31.4 +20.5 52 +38 +39 очень
душно
1010.2 992.3
00 15.01 ЮВ 1 20 км 5/1 800 м
[Cu med, cong Ac As]
+28.4 +22.1 69 +37 +37 очень
душно
1010.7 992.6 +33.4
09 15.01 ЮВ 1 20 км 5/0
[Cs]
+23.8 +19.7 78 +29 +29 душно 1012.3 993.9
12 15.01 В 1 20 км 4/0
[Cs]
+27.6 +22.1 72 +36 +45 очень
душно
1012.6 994.5 +23.8
15 15.01 С 5 20 км 5/3 1000 м
[Cu hum Cs]
+32.8 +17.5 40 +37 +44 очень
душно
1012.3 994.5
18 15.01 ЮЗ 2 20 км 6/4 800 м
[Cu med, cong Ac As]
+34.4 +18.7 40 +39 +47 очень
душно
1010.8 993.1
21 15.01 З 3 20 км 6/4 800 м
[Cu med, cong Ac As]
+35.0 +21.9 47 +44 +44 опасность
перегрева
1009.8 992.1
00 16.01 СВ 1 20 км 5/1 800 м
[Cu med, cong Ac As]
+29.0 +23.2 71 +39 +39 очень
душно
1010.5 992.5 +35.0
03 16.01 СВ 1 20 км 3/0 2000 м
[Ac As]
+25.4 +20.4 74 +31 +31 очень
душно
1011.2 992.9

 

Местоположение метеостанции Коронель-Овьедо (Парагвай): широта -25.45 долгота -56.36 высота над уровнем моря 163 м.

В архиве по умолчанию представлена погода в Коронель-Овьедо за последнюю неделю. Архивные данные за месяц целиком и за предыдущие месяцы, начиная с января 2011 года, Вы можете получить, выбрав интересующий диапазон дат из раскрывающегося списка и нажав кнопку "Ввод!".


*Определитесь, кто Вы:
робот инопланетянин человек

Внимание! Время в таблицах - всемирное. Для получения местного времени необходимо прибавить поправку, которая равна -4 ч.

Смотрите также архив погоды в соседних городах и на ближайших метеорологических станциях:

Погода в Вильяррике (Парагвай) (34 км)
Погода в Парагуари (Парагвай) (80 км)
Погода в Каасапе (Парагвай) (81 км)
Погода в Сан Эстанислао (Парагвай) (89 км)
Погода в Куйкуйо (Парагвай) (106 км)
Погода в Асунсьоне (Парагвай) (118 км)
Погода в Аэропорту Гуарани (Парагвай) (152 км)
Погода в Сан Хуан Батистута (Парагвай) (156 км)
Погода в Сан-Педро (Парагвай) (171 км)
Погода в Фос-ду-Игуасу (Парана, Бразилия) (179 км)

Пояснения к столбцам:

Ветер - указаны скорость ветра в м/с - средняя за 10 мин, порывы в срок и между сроками (в фигурных скобках) и направление, откуда дует ветер: С - северный, СВ - северо-восточный, В - восточный, ЮВ - юго-восточный, Ю - южный, ЮЗ - юго-западный, З - западный, СЗ - северо-западный.
Видимость - горизонтальная дальность видимости в метрах или километрах. При видимости от 1 до 10 км при отсутствии осадков обычно наблюдается дымка, при ухудшении видимости до 1 км и менее - туман. В сухую погоду видимость может ухудшаться дымом, пылью или мглою.
Явления - указаны атмосферные явления, наблюдавшиеся в срок или в последний час перед сроком; фигурными скобками обозначены явления, наблюдавшиеся между сроками (за 1-3 часа до срока); квадратными скобками обозначены град или гололедные отложения с указанием их диаметра в мм.
Облачность - указаны через наклонную черту общая и нижняя облачность в баллах и высота нижней границы облаков в метрах; квадратными скобками обозначены формы облаков: Ci - перистые, Cs - перисто-слоистые, Cc - перисто-кучевые, Ac - высококучевые, As - высокослоистые, Sc - слоисто-кучевые, Ns - слоисто-дождевые, Cu - кучевые, Cb - кучево-дождевые. Подробнее классификацию облаков см. в Атласе облаков (PDF).
T - Температура воздуха - температура, измеренная на высоте 2 м над землей.
Td - Температура точки росы - температура, при понижении до которой содержащийся в воздухе водяной пар достигнет насыщения.
f - Относительная влажность воздуха - влажноcть воздуха, измеренная на высоте 2 м над землей.
Te - Эффективная температура - температура, которую ощущает одетый по сезону человек в тени. Характеристика душности погоды. При расчете учитывается влияние влажности воздуха и скорости ветра на теплоощущения человека.
Tes - Эффективная температура на солнце - температура, которую ощущает человек, с поправкой на солнечный нагрев. Характеристика знойности погоды. Зависит от высоты солнца над горизонтом, облачности и скорости ветра. Ночью, в пасмурную погоду, а также при ветре 12 м/с и более поправка равна нулю.
P - Атмосферное давление - приведенное к уровню моря атмосферное давление.
Po - Атмосферное давление - измеренное на уровне метеостанции атмосферное давление.
Tmin - Минимальная температура - минимум температуры воздуха на высоте 2 м над землей.
Tmax - Максимальная температура - максимум температуры воздуха на высоте 2 м над землей.
R - Количество осадков - Количество выпавших осадков за период времени, мм. При наведении курсора мыши на число - период времени, за который выпало указанное количество осадков.
R24 - Количество осадков - Количество выпавших осадков за 24 часа, мм.
S - Снежный покров - Высота снежного покрова, см. При наведении курсора мыши на число - состояние снежного покрова и степень покрытия местности в баллах.